Starlink 4040

operational
NORAD ID: 53151 Int'l Des: 2022-083 Owner: SPXS Country: US Constellation: starlink
LEOCIRCULAR

About Starlink 4040

Description loading...

Live Position

Loading 3D Globe...

Upcoming Passes

Altitude History

Altitude vs Time

uPlot chart will show altitude changes over time

Two-Line Element Set

1 53151U 22083V 25296.61751600 .00000873 00000-0 72934-4 0 9997
2 53151 53.2178 59.4591 0001124 93.6916 266.4205 15.08837878180669
Epoch: Oct 23, 2025 • Age: 24 hours

Current Status

Altitude 550.4 km
Velocity 7.59 km/s
Sub-Earth Point -32.36°S, 136.44°E
Launch Date Jul 17, 2022
Age 3.2 years
Type internet

Technical Details

Classification Payload
Mass 297.00 kg
Dry Mass 275.00 kg
Total Mass 297.00 kg
Length 0.20 m
Diameter 2.80 m
Span 9.00 m
Shape Box + pan
Manufacturer SPXS
Bus Type Starlink
Phase Status In Orbit
Owner/State SPXS/US

Large Constellations

Loading constellations...